Weather History for Winfield, KS

Change the Weather History Date:

Saturday, November 2, 2013

  Actual Average Record
Temperature  
Mean Temperature 9 °C -  
Max Temperature 16 °C 15 °C 31 °C (2012)
Min Temperature 3 °C 5 °C -6 °C (2006)
Degree Days  
Heating Degree Days 16    
Moisture  
Dew Point 1 °C    
Average Humidity 63    
Maximum Humidity 89    
Minimum Humidity 31    
Precipitation  
Precipitation 0.00 mm - - ()
Sea Level Pressure  
Sea Level Pressure 1024 hPa    
Wind  
Wind Speed 13 km/h (NW)    
Max Wind Speed 26 km/h    
Max Gust Speed 45 km/h    
Visibility 16 kilometers    
Events      
Averages and records for this station are not official NWS values.
T = Trace of Precipitation, MM = Missing Value Source: NWS Daily Summary

Daily Weather History Graph

Daily Weather History Graph

Search for Another Location

Airport:

Trip Planner

Search our weather history database for the weather conditions in past years. The results will help you decide how hot, cold, wet, or windy it might be!

Date:

Astronomy

Nov. 02, 2013 Rise Set
Actual Time 7:53 AM CDT 6:29 PM CDT
Civil Twilight 7:26 AM CDT 6:56 PM CDT
Nautical Twilight 6:55 AM CDT 7:26 PM CDT
Astronomical Twilight 6:25 AM CDT 7:57 PM CDT
Moon 6:53 AM CDT (11/2) 6:00 PM CDT (11/2)
Length of Visible Light 11h 29m
Length of Day
10h 35m
Waning Crescent, 1% of the Moon is Illuminated
Nov 2
Waning Crescent
Nov 3
New
Nov 9
First Quarter
Nov 17
Full
Nov 25
Last Quarter

Hourly Weather History & Observations

Time (CDT) Temp. Windchill Dew Point Humidity Pressure Visibility Wind Dir Wind Speed Gust Speed Precip Events Conditions
12:54 AM 6.1 °C 3.8 °C 3.9 °C 86% 1020.2 hPa 16.1 km NW 11.1 km/h / 3.1 m/s - N/A   Clear
1:54 AM 7.2 °C 4.8 °C 3.3 °C 76% 1020.8 hPa 16.1 km WNW 13.0 km/h / 3.6 m/s - N/A   Clear
2:54 AM 6.1 °C 3.2 °C 2.8 °C 80% 1020.9 hPa 16.1 km NW 14.8 km/h / 4.1 m/s - N/A   Clear
3:54 AM 5.0 °C 2.8 °C 1.7 °C 79% 1021.4 hPa 16.1 km NW 9.3 km/h / 2.6 m/s - N/A   Clear
4:54 AM 5.0 °C 2.1 °C 2.2 °C 82% 1022.1 hPa 16.1 km NW 13.0 km/h / 3.6 m/s - N/A   Clear
5:54 AM 4.4 °C 1.7 °C 1.7 °C 83% 1023.0 hPa 16.1 km WNW 11.1 km/h / 3.1 m/s - N/A   Clear
6:54 AM 3.9 °C 1.1 °C 1.7 °C 86% 1023.9 hPa 16.1 km NW 11.1 km/h / 3.1 m/s - N/A   Clear
7:54 AM 3.3 °C 0.4 °C 1.7 °C 89% 1024.5 hPa 16.1 km West 11.1 km/h / 3.1 m/s - N/A   Clear
8:54 AM 5.6 °C 2.5 °C 2.2 °C 79% 1025.1 hPa 16.1 km WNW 14.8 km/h / 4.1 m/s - N/A   Clear
9:54 AM 8.3 °C - 2.2 °C 66% 1026.2 hPa 16.1 km NW 20.4 km/h / 5.7 m/s - N/A   Clear
10:54 AM 10.6 °C - 2.2 °C 56% 1026.5 hPa 16.1 km NW 25.9 km/h / 7.2 m/s - N/A   Clear
11:54 AM 12.8 °C - 1.7 °C 47% 1026.5 hPa 16.1 km NW 20.4 km/h / 5.7 m/s 33.3 km/h / 9.3 m/s N/A   Clear
12:54 PM 14.4 °C - 1.1 °C 41% 1025.9 hPa 16.1 km NW 24.1 km/h / 6.7 m/s 37.0 km/h / 10.3 m/s N/A   Clear
1:54 PM 15.6 °C - 0.0 °C 35% 1024.7 hPa 16.1 km NNW 22.2 km/h / 6.2 m/s 44.4 km/h / 12.3 m/s N/A   Clear
2:54 PM 15.6 °C - -0.6 °C 33% 1024.1 hPa 16.1 km NW 16.7 km/h / 4.6 m/s 31.5 km/h / 8.7 m/s N/A   Clear
3:54 PM 15.6 °C - -1.7 °C 31% 1023.3 hPa 16.1 km North 13.0 km/h / 3.6 m/s - N/A   Clear
4:54 PM 15.0 °C - -1.7 °C 32% 1023.1 hPa 16.1 km North 11.1 km/h / 3.1 m/s - N/A   Clear
5:54 PM 13.9 °C - -1.1 °C 36% 1022.9 hPa 16.1 km North 7.4 km/h / 2.1 m/s - N/A   Clear
6:54 PM 10.0 °C - 1.7 °C 57% 1023.2 hPa 16.1 km Calm Calm - N/A   Clear
7:54 PM 8.9 °C - 2.2 °C 63% 1023.3 hPa 16.1 km SE 5.6 km/h / 1.5 m/s - N/A   Clear
8:54 PM 6.1 °C 5.2 °C 1.7 °C 74% 1022.9 hPa 16.1 km SE 5.6 km/h / 1.5 m/s - N/A   Clear
9:54 PM 7.2 °C 6.4 °C 1.1 °C 65% 1022.7 hPa 16.1 km SE 5.6 km/h / 1.5 m/s - N/A   Clear
10:54 PM 7.2 °C 5.9 °C 0.6 °C 63% 1022.5 hPa 16.1 km ESE 7.4 km/h / 2.1 m/s - N/A   Clear
11:54 PM 6.1 °C 3.8 °C 0.0 °C 65% 1022.1 hPa 16.1 km SE 11.1 km/h / 3.1 m/s - N/A   Clear